[[{"header":{"parameterUnit":"m.s-1","parameterCategory":1,"la1":30.2991,"la2":30.254,"lo1":-89.0895,"lo2":-89.0444,"dy":0.0017,"dx":0.0017,"nx":28,"ny":28,"refTime":"2024-05-22T09:00:00:Z","depth":0,"parameterNumber":2,"parameterNumberName":"U-component_of_WINDS"},"data":[0,0,0,0,0,0,0,0,0,0,0,0,0,0,0,0,0,0,0,0,0,0,0,0,0,0,0,0,0,0,0,0,0,0,0,0,0,0,0,0,0,0,0,0,0,0,0,0,0,0,0,0,0,0,0,0,0,0,-1.1207,-1.1207,0,-1.1196,-1.1195,-1.1195,-1.1179,-1.1178,-1.1178,-1.1178,-1.1165,-1.1165,-1.1165,0,0,0,0,0,0,0,0,0,0,0,0,0,-1.1213,-1.1213,-1.1207,-1.1207,-1.1207,-1.1196,-1.1195,-1.1195,-1.1179,-1.1178,-1.1178,-1.1178,-1.1165,-1.1165,-1.1165,0,0,0,0,0,0,0,0,0,0,0,0,0,-1.1207,-1.1213,-1.1207,-1.1197,-1.1196,-1.1196,-1.1195,-1.1195,-1.1179,-1.1178,-1.1178,-1.1178,-1.1165,-1.1165,-1.1165,-1.1173,0,0,-1.1165,-1.1165,0,0,0,0,0,0,0,0,-1.1207,-1.1207,-1.1199,-1.1198,-1.1197,-1.1188,-1.1193,-1.1188,-1.1179,-1.1185,-1.1178,-1.1177,-1.1173,-1.1172,-1.1171,-1.1173,-1.1172,-1.1165,-1.1165,-1.1165,-1.1165,0,0,0,0,0,0,0,-1.1208,-1.1207,-1.1202,-1.1198,-1.1197,-1.1193,-1.1192,-1.1192,-1.1182,-1.1185,-1.1184,-1.1182,-1.1173,-1.1171,-1.1171,-1.1172,-1.1165,-1.1165,-1.1165,-1.1165,-1.118,-1.118,0,0,0,0,0,0,-1.121,-1.1208,-1.1203,-1.1202,-1.1201,-1.1193,-1.1192,-1.1191,-1.1182,-1.118,-1.1183,-1.1182,-1.1172,-1.1171,-1.117,-1.1179,-1.1165,-1.1165,-1.1165,-1.1179,-1.118,-1.118,0,0,0,0,0,0,-1.121,-1.121,-1.1203,-1.1205,-1.1203,-1.1194,-1.1193,-1.1191,-1.119,-1.118,-1.1178,-1.1184,-1.1171,-1.117,-1.1173,-1.1178,-1.1165,-1.1164,-1.1179,-1.1179,-1.118,-1.1197,0,0,0,0,0,0,-1.121,-1.121,-1.1213,-1.1205,-1.1203,-1.1206,-1.1194,-1.1191,-1.119,-1.1188,-1.118,-1.1179,-1.1171,-1.1173,-1.1173,-1.1178,-1.1164,-1.1178,-1.1179,-1.118,-1.1196,-1.1198,-1.12,0,0,0,0,0,-1.1211,-1.1218,-1.1213,-1.1213,-1.1207,-1.1206,-1.1206,-1.1197,-1.1191,-1.1193,-1.1187,-1.1179,-1.1178,-1.1173,-1.1173,-1.1178,-1.1178,-1.1179,-1.118,-1.1195,-1.1198,-1.12,0,0,0,0,0,0,-1.1226,-1.1217,-1.1211,-1.1216,-1.1212,-1.1204,-1.1207,-1.12,-1.1198,-1.1196,-1.1185,-1.1183,-1.1187,-1.1183,-1.1178,-1.1186,-1.1177,-1.1178,-1.1188,-1.1191,-1.1193,-1.1194,-1.1164,0,0,0,0,0,-1.123,-1.1231,-1.1222,-1.1227,-1.1226,-1.1217,-1.1216,-1.121,-1.1205,-1.1203,-1.1197,-1.1193,-1.1192,-1.1191,-1.1189,-1.1195,-1.1193,-1.1199,-1.1201,-1.1203,-1.1204,-1.1207,-1.1209,-1.1184,-1.1184,-1.1184,0,0,-1.1239,-1.1233,-1.1234,-1.123,-1.1227,-1.1227,-1.1215,-1.1217,-1.1217,-1.1203,-1.1205,-1.1201,-1.1195,-1.12,-1.1201,-1.1196,-1.1211,-1.1204,-1.1206,-1.1206,-1.1208,-1.121,-1.1213,-1.1184,-1.1184,-1.1184,0,0,-1.1254,-1.125,-1.1254,-1.1251,-1.1246,-1.124,-1.1241,-1.1233,-1.123,-1.1232,-1.1222,-1.1222,-1.122,-1.1217,-1.1215,-1.123,-1.1222,-1.1229,-1.124,-1.1243,-1.1245,-1.1247,-1.1252,-1.1254,-1.123,-1.123,-1.123,0,-1.1265,-1.1266,-1.1257,-1.1259,-1.1257,-1.1246,-1.125,-1.1247,-1.1241,-1.124,-1.1235,-1.1233,-1.1228,-1.1232,-1.1235,-1.1234,-1.1235,-1.123,-1.1246,-1.1248,-1.1249,-1.1254,-1.1256,-1.1231,-1.1231,-1.1231,-1.1231,0,-1.1279,-1.128,-1.1284,-1.1279,-1.1278,-1.1281,-1.1272,-1.1273,-1.1267,-1.1261,-1.1263,-1.1258,-1.1255,-1.1255,-1.1249,-1.1258,-1.1255,-1.1248,-1.1238,-1.1253,-1.1257,-1.1259,-1.1233,-1.1232,-1.1232,-1.1232,0,0,-1.1304,-1.1295,-1.1296,-1.1294,-1.1288,-1.1288,-1.129,-1.1288,-1.1288,-1.1285,-1.1287,-1.1286,-1.1279,-1.1277,-1.1271,-1.1273,-1.1286,-1.1266,-1.1266,-1.127,-1.1295,-1.13,-1.1302,-1.1281,-1.1281,-1.1281,-1.1295,0,-1.1318,-1.1321,-1.1314,-1.1319,-1.132,-1.1309,-1.1312,-1.1308,-1.1303,-1.1303,-1.1297,-1.1297,-1.1289,-1.1287,-1.129,-1.1284,-1.1291,-1.1283,-1.1282,-1.1282,-1.1283,-1.1305,-1.131,-1.1323,-1.1297,-1.1297,-1.1298,0,-1.1334,-1.1332,-1.1338,-1.1332,-1.1332,-1.1334,-1.1331,-1.1331,-1.1327,-1.1323,-1.1321,-1.1314,-1.1316,-1.1307,-1.1309,-1.1304,-1.1303,-1.1301,-1.1301,-1.13,-1.129,-1.1304,-1.1328,-1.133,-1.13,-1.13,-1.13,0,-1.1352,-1.135,-1.1354,-1.1352,-1.1345,-1.1347,-1.1344,-1.1339,-1.1338,-1.1336,-1.1335,-1.1333,-1.1332,-1.133,-1.1323,-1.1317,-1.1326,-1.1316,-1.1323,-1.1323,-1.1325,-1.1325,-1.1348,-1.1325,-1.1325,-1.1325,-1.1325,0,-1.1368,-1.1372,-1.1361,-1.1363,-1.1368,-1.1359,-1.1363,-1.1359,-1.1355,-1.1356,-1.1347,-1.1348,-1.1338,-1.1338,-1.1331,-1.1334,-1.1334,-1.1331,-1.1329,-1.1332,-1.1332,-1.1331,-1.1329,-1.1325,-1.1325,-1.1325,-1.1325,0,-1.1388,-1.1381,-1.1384,-1.1377,-1.1375,-1.1379,-1.1373,-1.1374,-1.1369,-1.1371,-1.137,-1.1362,-1.1362,-1.1354,-1.1352,-1.1348,-1.1353,-1.1349,-1.1354,-1.1353,-1.136,-1.1359,-1.1383,-1.1386,-1.1361,-1.1361,-1.1361,0,-1.1399,-1.1401,-1.1395,-1.1395,-1.1393,-1.1393,-1.1392,-1.1384,-1.1383,-1.1379,-1.1381,-1.138,-1.1379,-1.1378,-1.1372,-1.137,-1.1367,-1.1375,-1.1366,-1.1369,-1.1367,-1.1366,-1.1367,-1.1377,-1.1377,-1.1377,-1.1378,0,-1.1418,-1.1415,-1.1414,-1.1413,-1.1412,-1.1411,-1.1408,-1.1409,-1.14,-1.14,-1.1399,-1.1398,-1.1396,-1.1395,-1.1392,-1.1389,-1.1382,-1.1381,-1.1382,-1.1384,-1.1387,-1.1385,-1.1359,-1.138,-1.138,-1.1379,-1.1379,-1.1379,-1.1434,-1.1436,-1.1432,-1.1432,-1.1429,-1.1427,-1.1428,-1.1424,-1.1423,-1.1421,-1.1416,-1.1417,-1.1412,-1.1408,-1.1406,-1.1406,-1.1401,-1.1403,-1.1404,-1.1404,-1.1406,-1.1387,-1.1405,-1.1405,-1.1405,-1.1405,-1.1405,0,-1.1453,-1.145,-1.145,-1.1447,-1.1447,-1.1441,-1.1438,-1.1438,-1.1439,-1.1436,-1.1435,-1.1434,-1.1433,-1.1427,-1.1426,-1.1427,-1.1424,-1.1427,-1.1426,-1.1426,-1.141,-1.1409,-1.1429,-1.1429,-1.1429,-1.1429,-1.1429,-1.1429,-1.1463,-1.1467,-1.1463,-1.1465,-1.1462,-1.1462,-1.1461,-1.1459,-1.1457,-1.1457,-1.1456,-1.1452,-1.1448,-1.1446,-1.1445,-1.1443,-1.1443,-1.1447,-1.1444,-1.1429,-1.1427,-1.1425,-1.1424,-1.1447,-1.1447,-1.146,-1.1461,-1.1461]},{"header":{"parameterUnit":"m.s-1","parameterCategory":1,"la1":30.2991,"la2":30.254,"lo1":-89.0895,"lo2":-89.0444,"dy":0.0017,"dx":0.0017,"nx":28,"ny":28,"refTime":"2024-05-22T09:00:00:Z","depth":0,"parameterNumber":3,"parameterNumberName":"V-component_of_WINDS"},"data":[0,0,0,0,0,0,0,0,0,0,0,0,0,0,0,0,0,0,0,0,0,0,0,0,0,0,0,0,0,0,0,0,0,0,0,0,0,0,0,0,0,0,0,0,0,0,0,0,0,0,0,0,0,0,0,0,0,0,2.9201,2.9202,0,2.928,2.9281,2.9282,2.9281,2.928,2.9278,2.9277,2.9356,2.9359,2.9363,0,0,0,0,0,0,0,0,0,0,0,0,0,2.9045,2.9048,2.9201,2.9202,2.9203,2.928,2.9281,2.9282,2.9281,2.9279,2.9278,2.9277,2.9355,2.9359,2.9363,0,0,0,0,0,0,0,0,0,0,0,0,0,2.9118,2.9049,2.9201,2.9212,2.9213,2.928,2.9281,2.9282,2.9281,2.9279,2.9278,2.9276,2.9354,2.9359,2.9363,2.9424,0,0,2.9377,2.9379,0,0,0,0,0,0,0,0,2.9113,2.9123,2.9209,2.9211,2.9213,2.9269,2.9255,2.933,2.9281,2.9255,2.9277,2.9276,2.9328,2.9335,2.9353,2.9427,2.9431,2.9378,2.9381,2.9383,2.9384,0,0,0,0,0,0,0,2.9108,2.912,2.9232,2.921,2.9213,2.9211,2.922,2.9269,2.93,2.9257,2.9258,2.9267,2.9329,2.9349,2.9355,2.9432,2.9378,2.9382,2.9385,2.9387,2.9557,2.9559,0,0,0,0,0,0,2.9102,2.9116,2.923,2.9235,2.9158,2.9216,2.9225,2.9253,2.9299,2.9305,2.9268,2.9267,2.9342,2.935,2.9358,2.9431,2.9383,2.9387,2.939,2.9556,2.9558,2.956,0,0,0,0,0,0,2.9098,2.9112,2.9227,2.9175,2.919,2.922,2.9251,2.9255,2.9275,2.9307,2.9313,2.9283,2.9341,2.9351,2.9407,2.9434,2.9389,2.9393,2.9554,2.9556,2.9559,2.9578,0,0,0,0,0,0,2.9094,2.9111,2.9135,2.9176,2.9193,2.9275,2.9253,2.9258,2.9283,2.9282,2.9323,2.9328,2.934,2.94,2.9412,2.9439,2.9397,2.9551,2.9555,2.9558,2.9575,2.9581,2.9586,0,0,0,0,0,2.9088,2.9137,2.9136,2.915,2.9224,2.9277,2.9286,2.9301,2.9285,2.9309,2.933,2.9327,2.9429,2.9406,2.9419,2.9448,2.955,2.9554,2.9558,2.9572,2.9579,2.9585,0,0,0,0,0,0,2.9098,2.9143,2.9142,2.9206,2.9238,2.9277,2.9308,2.9308,2.9344,2.9341,2.9356,2.9366,2.9421,2.944,2.9414,2.9508,2.9487,2.9494,2.9494,2.9501,2.9506,2.95,2.9401,0,0,0,0,0,2.9107,2.9148,2.9184,2.9237,2.9253,2.9277,2.9301,2.9309,2.9343,2.9356,2.9381,2.9413,2.9452,2.9477,2.9515,2.9577,2.9586,2.9604,2.9609,2.9613,2.9619,2.9652,2.966,2.9573,2.9573,2.9573,0,0,2.9128,2.9157,2.9182,2.924,2.9265,2.9306,2.9289,2.9333,2.9363,2.9362,2.9417,2.9436,2.9472,2.9531,2.9558,2.9548,2.9645,2.9618,2.9621,2.9625,2.9657,2.9665,2.9672,2.9576,2.9575,2.9575,0,0,2.9185,2.9212,2.9258,2.9284,2.9323,2.9338,2.9349,2.9388,2.9401,2.9456,2.9456,2.9491,2.9558,2.9584,2.9606,2.9671,2.9669,2.9683,2.9711,2.9743,2.975,2.9756,2.9778,2.9786,2.9688,2.9688,2.9688,0,2.9205,2.9267,2.9281,2.9326,2.935,2.9352,2.9398,2.9422,2.9471,2.9488,2.9476,2.956,2.9585,2.9649,2.9665,2.9682,2.9694,2.9678,2.9748,2.9754,2.976,2.9782,2.979,2.969,2.9689,2.9689,2.9689,0,2.9289,2.9332,2.9365,2.9412,2.9441,2.9485,2.9505,2.9532,2.9537,2.9553,2.9608,2.9637,2.968,2.9696,2.9701,2.9761,2.9753,2.9745,2.9724,2.9769,2.979,2.9798,2.9692,2.9691,2.9691,2.969,0,0,2.9357,2.9411,2.9422,2.9443,2.9485,2.9518,2.9562,2.9605,2.9627,2.966,2.9697,2.9753,2.9745,2.977,2.9778,2.9806,2.9854,2.9793,2.9794,2.9803,2.992,2.9926,2.9936,2.9853,2.9854,2.9856,2.9917,0,2.9419,2.9498,2.9511,2.958,2.9618,2.9619,2.9657,2.9687,2.9703,2.9737,2.9754,2.9794,2.9781,2.9795,2.9823,2.9842,2.9878,2.9838,2.9886,2.9888,2.9877,2.9947,2.9954,3.001,2.9925,2.9926,2.9927,0,2.9502,2.9537,2.961,2.9646,2.9662,2.9697,2.9736,2.9769,2.9802,2.9811,2.9838,2.9842,2.9886,2.9863,2.9924,2.9897,2.9917,2.9929,2.9931,2.9936,2.991,2.9953,3.0028,3.0037,2.994,2.9939,2.9938,0,2.9543,2.9609,2.966,2.9678,2.9721,2.9745,2.9764,2.9795,2.9819,2.9853,2.9869,2.9907,2.9928,2.9957,2.9971,2.9953,3.003,3.0009,3.0039,3.0038,3.0055,3.0054,3.0135,3.0068,3.0068,3.0068,3.0068,0,2.9611,2.9655,2.9679,2.9711,2.976,2.9774,2.9822,2.984,2.9867,2.9901,2.9904,2.9936,2.9953,2.9987,2.9998,3.0045,3.0055,3.0063,3.0066,3.0063,3.0062,3.0077,3.0073,3.007,3.007,3.0069,3.0069,0,2.9666,2.9684,2.974,2.9776,2.9785,2.982,2.985,2.988,2.9895,2.9939,2.9949,2.9973,3.0013,3.003,3.0079,3.0086,3.0141,3.014,3.013,3.0131,3.016,3.0157,3.0253,3.0265,3.0191,3.0191,3.0192,0,2.9708,2.9742,2.9781,2.9804,2.9824,2.9861,2.9886,2.99,2.9925,2.9964,2.9989,3.0029,3.0062,3.0126,3.0147,3.0184,3.0184,3.0215,3.019,3.0186,3.0184,3.0182,3.0185,3.022,3.0221,3.0221,3.0222,0,2.9781,2.9787,2.9823,2.9861,2.9891,2.9921,2.9951,2.997,2.9988,3.0016,3.0057,3.0083,3.0133,3.0172,3.021,3.0228,3.0228,3.0229,3.0238,3.0236,3.0229,3.0232,3.0143,3.0227,3.0227,3.0226,3.0226,3.0226,2.983,2.986,2.9892,2.9931,2.9955,2.9982,3.0012,3.003,3.0065,3.0107,3.0112,3.0156,3.0186,3.0237,3.0257,3.029,3.0282,3.0295,3.0299,3.0302,3.0303,3.0223,3.0297,3.0297,3.0297,3.0297,3.0297,0,2.9903,2.9923,2.9959,3.0,3.003,3.0027,3.006,3.0085,3.0124,3.0152,3.0184,3.023,3.0268,3.0291,3.0329,3.0351,3.0352,3.0361,3.0359,3.0363,3.0309,3.0297,3.0359,3.0359,3.0359,3.0359,3.0359,3.0359,2.9944,2.9994,3.0004,3.0065,3.0085,3.0128,3.0147,3.0171,3.0194,3.0245,3.0277,3.0292,3.0317,3.0357,3.0391,3.0397,3.041,3.042,3.0425,3.0373,3.0367,3.0361,3.035,3.0422,3.0423,3.0476,3.0477,3.0477]}]]